• In Germany
  • List of Countries
  • For 7 days
  • Water Temperature
  • Satellite Maps
  • Weather Map
  • Weather Widgets
  • user-avatar
    Login

    Hourly Weather Newcastle

    Today, 20 September, Wednesday

    Time Temperature Precipitation Wind Pressure Humidity
    00:00 +11°C° 0 mm 4 mps 764 mmHg 62%
    01:00 +10°C° 0 mm 4 mps 764 mmHg 64%
    02:00 +9°C° 0 mm 3 mps 764 mmHg 66%
    03:00 +9°C° 0 mm 3 mps 764 mmHg 68%
    04:00 +8°C° 0 mm 2 mps 764 mmHg 73%
    05:00 +9°C° 0 mm 2 mps 764 mmHg 71%
    06:00 +9°C° 0 mm 3 mps 764 mmHg 69%
    07:00 +10°C° 0 mm 3 mps 765 mmHg 67%
    08:00 +13°C° 0 mm 3 mps 764 mmHg 61%
    09:00 +17°C° 0 mm 2 mps 764 mmHg 56%
    10:00 +23°C° 0 mm 2 mps 764 mmHg 44%
    11:00 +23°C° 0 mm 2 mps 764 mmHg 42%
    12:00 +24°C° 0 mm 2 mps 763 mmHg 39%
    13:00 +24°C° 0 mm 3 mps 763 mmHg 36%
    14:00 +24°C° 0 mm 3 mps 762 mmHg 40%
    15:00 +22°C° 0 mm 3 mps 762 mmHg 44%
    16:00 +20°C° 0 mm 2 mps 761 mmHg 53%
    17:00 +18°C° 0 mm 2 mps 762 mmHg 64%
    18:00 +16°C° 0 mm 2 mps 762 mmHg 75%
    19:00 +14°C° 0 mm 2 mps 763 mmHg 86%
    20:00 +13°C° 0 mm 2 mps 763 mmHg 89%
    21:00 +13°C° 0 mm 2 mps 763 mmHg 92%
    22:00 +12°C° 0 mm 2 mps 763 mmHg 95%
    23:00 +12°C° 0 mm 2 mps 763 mmHg 95%

    Tomorrow, 21 September, Thursday

    Time Temperature Precipitation Wind Pressure Humidity
    00:00 +12°C° 0 mm 2 mps 763 mmHg 96%
    01:00 +10°C° 0 mm 2 mps 763 mmHg 96%
    02:00 +10°C° 0 mm 2 mps 763 mmHg 96%
    03:00 +10°C° 0 mm 2 mps 763 mmHg 95%
    04:00 +9°C° 0 mm 2 mps 762 mmHg 95%
    05:00 +10°C° 0 mm 2 mps 763 mmHg 90%
    06:00 +10°C° 0 mm 2 mps 763 mmHg 85%
    07:00 +12°C° 0 mm 2 mps 763 mmHg 81%
    08:00 +16°C° 0 mm 2 mps 762 mmHg 65%
    09:00 +20°C° 0 mm 2 mps 762 mmHg 50%
    10:00 +24°C° 0 mm 2 mps 762 mmHg 34%
    11:00 +26°C° 0 mm 2 mps 761 mmHg 31%
    12:00 +27°C° 0 mm 3 mps 761 mmHg 28%
    13:00 +29°C° 0 mm 3 mps 760 mmHg 25%
    14:00 +29°C° 0 mm 4 mps 760 mmHg 27%
    15:00 +29°C° 0 mm 4 mps 759 mmHg 29%
    16:00 +28°C° 0 mm 4 mps 759 mmHg 32%
    17:00 +25°C° 0 mm 5 mps 759 mmHg 41%
    18:00 +22°C° 0 mm 5 mps 760 mmHg 50%
    19:00 +19°C° 0 mm 5 mps 760 mmHg 59%
    20:00 +18°C° 0 mm 4 mps 760 mmHg 63%
    21:00 +17°C° 0 mm 4 mps 761 mmHg 66%
    22:00 +15°C° 0 mm 4 mps 761 mmHg 70%
    23:00 +15°C° 0 mm 4 mps 761 mmHg 67%

    Day after tomorrow, 22 September, Friday

    Time Temperature Precipitation Wind Pressure Humidity
    00:00 +14°C° 0 mm 4 mps 761 mmHg 65%
    01:00 +14°C° 0 mm 3 mps 760 mmHg 62%
    02:00 +13°C° 0 mm 3 mps 760 mmHg 59%
    03:00 +13°C° 0 mm 3 mps 760 mmHg 56%
    04:00 +13°C° 0 mm 3 mps 760 mmHg 53%
    05:00 +14°C° 0 mm 3 mps 760 mmHg 51%
    06:00 +14°C° 0 mm 3 mps 761 mmHg 50%
    07:00 +16°C° 0 mm 3 mps 761 mmHg 49%
    08:00 +20°C° 0 mm 3 mps 761 mmHg 42%
    09:00 +24°C° 0 mm 3 mps 760 mmHg 35%
    10:00 +28°C° 0 mm 3 mps 760 mmHg 28%
    11:00 +29°C° 0 mm 3 mps 760 mmHg 25%
    12:00 +30°C° 0 mm 3 mps 759 mmHg 22%
    13:00 +31°C° 0 mm 3 mps 758 mmHg 19%
    14:00 +31°C° 0 mm 3 mps 758 mmHg 22%
    15:00 +32°C° 0 mm 4 mps 758 mmHg 24%
    16:00 +30°C° 0 mm 4 mps 757 mmHg 26%
    17:00 +28°C° 0 mm 4 mps 758 mmHg 35%
    18:00 +25°C° 0 mm 5 mps 758 mmHg 44%
    19:00 +21°C° 0 mm 5 mps 758 mmHg 53%
    20:00 +20°C° 0 mm 4 mps 759 mmHg 56%
    21:00 +19°C° 0 mm 4 mps 759 mmHg 59%
    22:00 +18°C° 0 mm 3 mps 759 mmHg 62%
    23:00 +18°C° 0 mm 3 mps 759 mmHg 59%

    23 September, Saturday

    Time Temperature Precipitation Wind Pressure Humidity
    00:00 +18°C° 0 mm 3 mps 758 mmHg 57%
    01:00 +18°C° 0 mm 3 mps 758 mmHg 54%
    02:00 +18°C° 0 mm 3 mps 757 mmHg 54%
    03:00 +18°C° 0 mm 3 mps 757 mmHg 53%
    04:00 +17°C° 0 mm 3 mps 756 mmHg 52%
    05:00 +18°C° 0 mm 3 mps 756 mmHg 50%
    06:00 +19°C° 0 mm 3 mps 756 mmHg 48%
    07:00 +20°C° 0 mm 3 mps 756 mmHg 45%
    08:00 +24°C° 0 mm 3 mps 756 mmHg 39%
    09:00 +27°C° 0 mm 3 mps 756 mmHg 32%
    10:00 +30°C° 0 mm 4 mps 755 mmHg 26%
    11:00 +33°C° 0 mm 4 mps 754 mmHg 23%
    12:00 +35°C° 0 mm 5 mps 753 mmHg 19%
    13:00 +38°C° 0 mm 6 mps 752 mmHg 16%
    14:00 +36°C° 0 mm 5 mps 752 mmHg 17%
    15:00 +36°C° 0 mm 5 mps 751 mmHg 18%
    16:00 +36°C° 0 mm 5 mps 750 mmHg 19%
    17:00 +34°C° 0 mm 5 mps 751 mmHg 21%
    18:00 +30°C° 0 mm 5 mps 751 mmHg 24%
    19:00 +27°C° 0 mm 4 mps 752 mmHg 26%
    20:00 +26°C° 0 mm 4 mps 751 mmHg 27%
    21:00 +25°C° 0 mm 4 mps 751 mmHg 28%
    22:00 +25°C° 0 mm 4 mps 750 mmHg 29%
    23:00 +25°C° 0 mm 4 mps 750 mmHg 26%

    24 September, Sunday

    Time Temperature Precipitation Wind Pressure Humidity
    00:00 +26°C° 0 mm 4 mps 749 mmHg 23%
    01:00 +27°C° 0 mm 4 mps 749 mmHg 21%
    02:00 +27°C° 0 mm 5 mps 749 mmHg 21%
    03:00 +27°C° 0 mm 5 mps 749 mmHg 21%
    04:00 +27°C° 0 mm 5 mps 750 mmHg 21%
    05:00 +26°C° 0 mm 5 mps 751 mmHg 27%
    06:00 +25°C° 0 mm 4 mps 751 mmHg 32%
    07:00 +23°C° 0 mm 4 mps 752 mmHg 38%
    08:00 +26°C° 0 mm 5 mps 752 mmHg 32%
    09:00 +28°C° 0 mm 5 mps 752 mmHg 26%
    10:00 +30°C° 0 mm 6 mps 753 mmHg 20%
    11:00 +33°C° 0 mm 6 mps 752 mmHg 18%
    12:00 +34°C° 0 mm 7 mps 751 mmHg 16%
    13:00 +35°C° 0 mm 7 mps 751 mmHg 14%
    14:00 +35°C° 0 mm 7 mps 751 mmHg 15%
    15:00 +34°C° 0 mm 6 mps 751 mmHg 17%
    16:00 +34°C° 0 mm 6 mps 750 mmHg 19%
    17:00 +30°C° 0 mm 5 mps 751 mmHg 22%
    18:00 +28°C° 0 mm 4 mps 752 mmHg 25%
    19:00 +25°C° 0 mm 3 mps 752 mmHg 29%
    20:00 +24°C° 0 mm 3 mps 753 mmHg 31%
    21:00 +22°C° 0 mm 3 mps 753 mmHg 32%
    22:00 +21°C° 0 mm 2 mps 753 mmHg 34%
    23:00 +20°C° 0 mm 3 mps 753 mmHg 35%

    25 September, Monday

    Time Temperature Precipitation Wind Pressure Humidity
    00:00 +19°C° 0 mm 3 mps 754 mmHg 36%
    01:00 +18°C° 0 mm 3 mps 754 mmHg 37%
    02:00 +18°C° 0 mm 3 mps 754 mmHg 37%
    03:00 +18°C° 0 mm 3 mps 755 mmHg 37%
    04:00 +18°C° 0 mm 3 mps 755 mmHg 37%
    05:00 +18°C° 0 mm 3 mps 756 mmHg 37%
    06:00 +19°C° 0 mm 3 mps 756 mmHg 37%
    07:00 +20°C° 0 mm 3 mps 756 mmHg 37%
    08:00 +22°C° 0 mm 3 mps 756 mmHg 33%
    09:00 +25°C° 0 mm 3 mps 757 mmHg 29%
    10:00 +27°C° 0 mm 4 mps 757 mmHg 25%
    11:00 +28°C° 0 mm 4 mps 757 mmHg 25%
    12:00 +29°C° 0 mm 4 mps 757 mmHg 26%
    13:00 +29°C° 0 mm 4 mps 756 mmHg 26%
    14:00 +29°C° 0 mm 4 mps 756 mmHg 28%
    15:00 +29°C° 0 mm 4 mps 756 mmHg 29%
    16:00 +29°C° 0 mm 4 mps 756 mmHg 31%
    17:00 +26°C° 0 mm 3 mps 757 mmHg 39%
    18:00 +24°C° 0 mm 3 mps 757 mmHg 47%
    19:00 +20°C° 0 mm 3 mps 757 mmHg 55%
    20:00 +19°C° 0 mm 3 mps 758 mmHg 61%
    21:00 +18°C° 0 mm 3 mps 758 mmHg 68%
    22:00 +17°C° 0 mm 3 mps 758 mmHg 74%
    23:00 +17°C° 0.3 mm 3 mps 758 mmHg 80%
    Show more